Weather History for Metropolis, IL

Change the Weather History Date:

Sunday, October 19, 2014

  Actual Average (KPAH) Record (KPAH)
Temperature  
Mean Temperature 50 °F 58 °F  
Max Temperature 63 °F 70 °F 90 °F (1938)
Min Temperature 39 °F 46 °F 32 °F (1990)
Degree Days  
Heating Degree Days 14 8  
Month to date heating degree days 113  
Since 1 July heating degree days 152  
Cooling Degree Days 0 1  
Month to date cooling degree days 30  
Year to date cooling degree days 1530  
Moisture  
Dew Point 45 °F    
Average Humidity 84    
Maximum Humidity 100    
Minimum Humidity 52    
Precipitation  
Precipitation 0.00 in 0.13 in 1.00 in (1994)
Month to date precipitation 2.48  
Year to date precipitation 38.71  
Snow  
Snow 0.00 in 0.00 in T in (1989)
Month to date snowfall 0.0  
Since 1 July snowfall 0.0  
Since 1 September snowfall 0.0  
Snow Depth -    
Sea Level Pressure  
Sea Level Pressure 30.18 in    
Wind  
Wind Speed 0 mph (South)    
Max Wind Speed 6 mph    
Max Gust Speed -    
Visibility 8 miles    
Events      
T = Trace of Precipitation, MM = Missing Value Source: NWS Daily Summary

Daily Weather History Graph

Daily Weather History Graph

Search for Another Location

Airport:

Trip Planner

Search our weather history database for the weather conditions in past years. The results will help you decide how hot, cold, wet, or windy it might be!

Date:

Astronomy

Oct. 19, 2014 Rise Set
Actual Time 7:06 AM CDT 6:12 PM CDT
Civil Twilight 6:40 AM CDT 6:39 PM CDT
Nautical Twilight 6:09 AM CDT 7:09 PM CDT
Astronomical Twilight 5:39 AM CDT 7:39 PM CDT
Moon 3:04 AM CDT (10/19) 3:59 PM CDT (10/19)
Length of Visible Light 11h 58m
Length of Day
11h 06m
Waning Crescent, 16% of the Moon is Illuminated
Oct 19
Waning Crescent
Oct 23
New
Oct 30
First Quarter
Nov 6
Full
Nov 14
Last Quarter

Hourly Weather History & Observations

Time (CDT) Temp. Windchill Dew Point Humidity Pressure Visibility Wind Dir Wind Speed Gust Speed Precip Events Conditions
12:15 AM 44.2 °F - 44.2 °F 100% 30.19 in 10.0 mi Calm Calm - N/A   Clear
12:35 AM 43.7 °F - 43.7 °F 100% 30.20 in 10.0 mi Calm Calm - N/A   Clear
12:55 AM 43.7 °F - 43.7 °F 100% 30.20 in 7.0 mi Calm Calm - N/A   Clear
1:15 AM 43.2 °F - 43.2 °F 100% 30.20 in 10.0 mi Calm Calm - N/A   Clear
1:35 AM 43.0 °F - 43.0 °F 100% 30.20 in 10.0 mi Calm Calm - N/A   Clear
1:55 AM 42.8 °F - 42.8 °F 100% 30.20 in 10.0 mi Calm Calm - N/A   Clear
2:15 AM 43.0 °F - 43.0 °F 100% 30.20 in 7.0 mi Calm Calm - N/A   Clear
2:35 AM 42.3 °F - 42.3 °F 100% 30.21 in 7.0 mi Calm Calm - N/A   Clear
2:55 AM 41.2 °F - 41.2 °F 100% 30.20 in 10.0 mi Calm Calm - N/A   Clear
3:15 AM 42.1 °F - 42.1 °F 100% 30.20 in 5.0 mi Calm Calm - N/A   Clear
3:35 AM 41.2 °F - 41.2 °F 100% 30.19 in 5.0 mi Calm Calm - N/A   Clear
3:55 AM 41.2 °F - 41.2 °F 100% 30.20 in 7.0 mi Calm Calm - N/A   Clear
4:15 AM 41.5 °F - 41.5 °F 100% 30.21 in 5.0 mi Calm Calm - N/A   Clear
4:35 AM 40.3 °F - 40.3 °F 100% 30.21 in 7.0 mi Calm Calm - N/A   Clear
4:55 AM 41.7 °F 39.8 °F 41.7 °F 100% 30.21 in 5.0 mi North 3.5 mph - N/A   Clear
5:15 AM 41.2 °F - 41.2 °F 100% 30.21 in 5.0 mi Calm Calm - N/A   Clear
5:35 AM 40.8 °F - 40.8 °F 100% 30.22 in 5.0 mi Calm Calm - N/A   Clear
5:55 AM 41.0 °F - 41.0 °F 100% 30.23 in 5.0 mi Calm Calm - N/A   Clear
6:15 AM 41.4 °F - 41.4 °F 100% 30.22 in 5.0 mi Calm Calm - N/A   Clear
6:35 AM 41.0 °F - 41.0 °F 100% 30.22 in 3.0 mi Calm Calm - N/A   Clear
6:55 AM 39.9 °F - 39.9 °F 100% 30.23 in 2.5 mi Calm Calm - N/A   Clear
7:15 AM 39.4 °F - 39.4 °F 100% 30.23 in 2.5 mi Calm Calm - N/A   Clear
7:35 AM 39.2 °F - 39.2 °F 100% 30.23 in 4.0 mi Calm Calm - N/A   Clear
7:55 AM 40.3 °F - 40.3 °F 100% 30.24 in 4.0 mi Calm Calm - N/A   Clear
8:15 AM 43.0 °F - 43.0 °F 100% 30.25 in 7.0 mi Calm Calm - N/A   Clear
8:35 AM 46.0 °F - 46.0 °F 100% 30.25 in 10.0 mi Calm Calm - N/A   Clear
8:55 AM 48.0 °F - 48.0 °F 100% 30.26 in 10.0 mi Calm Calm - N/A   Clear
9:15 AM 50.2 °F - 48.0 °F 92% 30.26 in 10.0 mi East 4.6 mph - N/A   Clear
9:35 AM 52.2 °F - 48.2 °F 86% 30.26 in 10.0 mi East 3.5 mph - N/A   Clear
9:55 AM 53.1 °F - 46.9 °F 80% 30.26 in 10.0 mi SSE 3.5 mph - N/A   Clear
10:15 AM 54.0 °F - 46.0 °F 75% 30.26 in 10.0 mi Calm Calm - N/A   Clear
10:35 AM 53.4 °F - 44.6 °F 72% 30.26 in 10.0 mi Calm Calm - N/A   Mostly Cloudy
10:55 AM 54.3 °F - 45.0 °F 71% 30.26 in 10.0 mi Calm Calm - N/A   Scattered Clouds
11:15 AM 55.6 °F - 43.9 °F 65% 30.26 in 10.0 mi Calm Calm - N/A   Scattered Clouds
11:35 AM 55.0 °F - 43.9 °F 66% 30.25 in 10.0 mi Calm Calm - N/A   Scattered Clouds
11:55 AM 58.1 °F - 44.8 °F 61% 30.24 in 10.0 mi Calm Calm - N/A   Mostly Cloudy
12:15 PM 58.8 °F - 44.6 °F 59% 30.24 in 10.0 mi SE 3.5 mph - N/A   Mostly Cloudy
12:35 PM 59.0 °F - 45.3 °F 60% 30.23 in 10.0 mi SSW 3.5 mph - N/A   Mostly Cloudy
12:55 PM 58.3 °F - 44.6 °F 60% 30.21 in 10.0 mi Calm Calm - N/A   Scattered Clouds
1:15 PM 59.5 °F - 45.1 °F 59% 30.21 in 10.0 mi Calm Calm - N/A   Clear
1:35 PM 60.8 °F - 45.3 °F 57% 30.19 in 7.0 mi South 3.5 mph - N/A   Clear
1:55 PM 61.3 °F - 45.7 °F 56% 30.18 in 10.0 mi Calm Calm - N/A   Clear
2:15 PM 62.1 °F - 45.7 °F 55% 30.16 in 10.0 mi SW 4.6 mph - N/A   Clear
2:35 PM 61.2 °F - 45.5 °F 56% 30.16 in 10.0 mi SSW 3.5 mph - N/A   Clear
2:55 PM 61.2 °F - 45.9 °F 57% 30.15 in 10.0 mi Calm Calm - N/A   Clear
3:15 PM 62.8 °F - 45.7 °F 54% 30.14 in 10.0 mi WSW 5.8 mph - N/A   Clear
3:35 PM 62.4 °F - 45.5 °F 54% 30.14 in 10.0 mi Calm Calm - N/A   Clear
3:55 PM 62.2 °F - 45.0 °F 53% 30.13 in 10.0 mi Calm Calm - N/A   Clear
4:15 PM 61.9 °F - 45.0 °F 54% 30.12 in 10.0 mi Calm Calm - N/A   Clear
4:35 PM 61.9 °F - 44.8 °F 53% 30.12 in 10.0 mi Calm Calm - N/A   Clear
4:55 PM 62.1 °F - 44.2 °F 52% 30.11 in 10.0 mi Calm Calm - N/A   Clear
5:15 PM 62.1 °F - 44.4 °F 52% 30.11 in 10.0 mi Calm Calm - N/A   Clear
5:35 PM 61.2 °F - 44.6 °F 54% 30.11 in 10.0 mi Calm Calm - N/A   Clear
5:55 PM 59.0 °F - 46.8 °F 64% 30.11 in 10.0 mi Calm Calm - N/A   Clear
6:15 PM 55.9 °F - 47.5 °F 73% 30.11 in 10.0 mi Calm Calm - N/A   Clear
6:35 PM 54.9 °F - 48.2 °F 78% 30.11 in 10.0 mi Calm Calm - N/A   Clear
6:55 PM 54.1 °F - 48.0 °F 80% 30.11 in 10.0 mi Calm Calm - N/A   Clear
7:15 PM 53.4 °F - 48.2 °F 82% 30.11 in 10.0 mi Calm Calm - N/A   Clear
7:35 PM 52.7 °F - 48.6 °F 86% 30.11 in 10.0 mi Calm Calm - N/A   Clear
7:55 PM 52.2 °F - 48.4 °F 87% 30.10 in 7.0 mi Calm Calm - N/A   Clear
8:15 PM 51.8 °F - 48.9 °F 90% 30.09 in 10.0 mi Calm Calm - N/A   Clear
8:35 PM 51.4 °F - 48.9 °F 91% 30.10 in 10.0 mi Calm Calm - N/A   Clear
8:55 PM 51.1 °F - 49.6 °F 95% 30.09 in 10.0 mi Calm Calm - N/A   Clear
9:15 PM 50.0 °F - 49.8 °F 99% 30.09 in 10.0 mi Calm Calm - N/A   Clear
9:35 PM 49.6 °F - 49.6 °F 100% 30.09 in 7.0 mi Calm Calm - N/A   Clear
9:55 PM 48.6 °F - 48.6 °F 100% 30.08 in 10.0 mi Calm Calm - N/A   Clear
10:15 PM 48.2 °F - 48.2 °F 100% 30.08 in 10.0 mi Calm Calm - N/A   Clear
10:35 PM 47.8 °F - 47.8 °F 100% 30.08 in 7.0 mi Calm Calm - N/A   Clear
10:55 PM 47.3 °F - 47.3 °F 100% 30.08 in 7.0 mi Calm Calm - N/A   Clear
11:15 PM 46.2 °F - 46.2 °F 100% 30.08 in 7.0 mi Calm Calm - N/A   Clear
11:35 PM 45.9 °F - 45.9 °F 100% 30.07 in 5.0 mi Calm Calm - N/A   Clear
11:55 PM 45.5 °F - 45.5 °F 100% 30.07 in 5.0 mi Calm Calm - N/A   Clear